Regional Weather Roundup
Issued by NWS Little Rock, AR

Home | Current Version | Previous Version | Text Only | Print | Product List | Glossary On
Versions: 1 2 3 4 5 6 7 8 9 10 11 12 13 14 15 16 17 18 19 20 21 22 23 24 25 26 27 28 29 30 31 32 33 34 35 36 37 38 39 40 41 42 43 44 45 46 47 48 49 50
000
ASUS44 KLZK 300205
RWRLZK

WEATHER ROUNDUP FOR ARKANSAS
NATIONAL WEATHER SERVICE LITTLE ROCK AR
900 PM CDT SUN MAR 29 2015

NOTE: "FAIR" INDICATES FEW OR NO CLOUDS BELOW 12,000 FEET WITH NO
SIGNIFICANT WEATHER AND/OR OBSTRUCTIONS TO VISIBILITY.

ARZ001-003-010-029-300300-
NORTHWEST ARKANSAS

CITY           SKY/WX    TMP DP  RH WIND       PRES   REMARKS
FAYETTEVILLE   CLOUDY    52  48  86 CALM      30.12R
FORT SMITH     PTCLDY    64  44  48 NW5       30.09R
HARRISON       CLOUDY    57  44  62 NW5       30.10R
BENTONVILLE    MOCLDY    54  43  66 CALM      30.13R
ROGERS         MOCLDY    55  44  66 NW5       30.13R
SILOAM SPGS    CLOUDY    54  41  62 CALM      30.13R
HIGHFILL       MOCLDY    53  44  71 W3        30.11R
SPRINGDALE     PTCLDY    57  45  62 NW5       30.13R
$$

ARZ004-005-016-300300-
NORTH CENTRAL ARKANSAS

CITY           SKY/WX    TMP DP  RH WIND       PRES   REMARKS
BATESVILLE     CLOUDY    61  52  72 NW3       30.07R
FLIPPIN        MOCLDY    61  43  51 N7        30.09R
MTN HOME       MOCLDY    60  45  57 NW6       30.09R
$$

ARZ040-041-300300-
WEST CENTRAL ARKANSAS

CITY           SKY/WX    TMP DP  RH WIND       PRES   REMARKS
MENA           PTCLDY    70  54  56 N3        30.07R
MOUNT IDA      CLOUDY    65  55  70 CALM      30.03R
$$

ARZ009-017-025-026-028-300300-
NORTHEAST ARKANSAS

CITY           SKY/WX    TMP DP  RH WIND       PRES   REMARKS
CORNING          N/A     55  52  88 SW5       30.08R
JONESBORO      MOCLDY    54  50  86 CALM      30.05S
NEWPORT        PTCLDY    58  53  83 SE5       30.07R
BLYTHEVILLE    PTCLDY    58  50  75 SW5       30.06R
$$

ARZ022-023-033-042-044-300300-
CENTRAL ARKANSAS

CITY           SKY/WX    TMP DP  RH WIND       PRES   REMARKS
LITTLE ROCK    MOCLDY    68  49  50 N7        30.04R
N LITTLE ROCK  MOCLDY    68  53  58 N7        30.04R
JACKSONVILLE   CLOUDY    65  54  65 N5        30.04R
SEARCY         MOCLDY    61  54  77 N5        30.07R
HOT SPRINGS    MOCLDY    70  51  51 CALM      30.04R
RUSSELLVILLE   CLOUDY    59  54  83 CALM      30.06R
CLINTON        CLOUDY    57  54  88 CALM      30.09R
$$

ARZ036-300300-
EAST ARKANSAS

CITY           SKY/WX    TMP DP  RH WIND       PRES   REMARKS
WEST MEMPHIS   HAZE      58  53  84 CALM      30.05R VSB 1/2
$$

ARZ050-053-066-070-073-300300-
SOUTHWEST ARKANSAS

CITY           SKY/WX    TMP DP  RH WIND       PRES   REMARKS
ARKADELPHIA    FAIR      65  60  83 CALM      30.03R
CAMDEN         PTCLDY    68  54  60 MISG      30.03R
TEXARKANA      CLEAR     71  54  54 SW5       30.04R
EL DORADO      CLEAR     71  54  54 SW5       30.05R
DE QUEEN       CLOUDY    67  57  70 CALM      30.01R
$$

ARZ056-057-069-300300-
SOUTHEAST ARKANSAS

CITY           SKY/WX    TMP DP  RH WIND       PRES   REMARKS
PINE BLUFF     CLEAR     67  56  67 S3        30.03R
STUTTGART      MOCLDY    66  55  68 S6        30.03R
MONTICELLO     CLEAR     69  58  67 S5        30.03R

$$




USA.gov is the U.S. government's official web portal to all federal, state and local government web resources and services.